P/2018 V5 ( Trujillo-Sheppard )

Japanese version
Home page
Updated on February 8, 2019

---------------------------------------------------------------------

* Profile

Discovery Date November 6, 2018
Magnitude 22.2 mag
Discoverer C. A. Trujillo and S. S. Sheppard (Mauna Kea)

* Orbital Elements

Epoch 2018 Mar. 23.0 TT = JDT 2458200.5                 MPC
M 169.93401              (2000.0)            P               Q
n   1.33368193     Peri.  241.17313     +0.98857005     +0.14862419
a   0.8173998      Node   110.27013     -0.12721345     +0.91238662
e   0.4004756      Incl.    1.54549     -0.08090731     +0.38139416
P   0.74           H   26.3           G   0.15           U   8

* Magnitudes Graph

        m1 = 12.5 + 5 log d + 10.0 log r

---------------------------------------------------------------------

The orbital elements are published on M.P.E.C. 2018-C18.
The magnitudes graphs are made with Comet for Windows.

---------------------------------------------------------------------

Copyright(C) Seiichi Yoshida (comet@aerith.net). All rights reserved.